GW5208 Weather Reports


Display with metric or nautical units.
time (UTC)temp
F
wind
direction
speed
MPH
gust
MPH
rain 1hr
in
rain 24hr
in
rain mn
in
humidity
%
barometer
mb
20260904170004 59 333 0.0 0.0 0.00 0.00 0.00 51 1010.8
20260904164508 58 190 0.0 0.0 0.00 0.00 0.00 53 1010.6
20260904163011 58 323 0.0 0.0 0.00 0.00 0.00 54 1010.3
20260904161516 56 322 0.0 0.0 0.00 0.00 0.00 56 1010.1
20260904160024 56 253 0.0 0.0 0.00 0.00 0.00 57 1010.2
20260904154503 55 277 0.0 0.0 0.00 0.00 0.00 60 1009.9
20260904153017 55 306 0.0 0.0 0.00 0.00 0.00 62 1009.8
20260904151515 55 253 0.0 0.0 0.00 0.00 0.00 62 1009.6
20260904150021 54 349 0.0 0.0 0.00 0.00 0.00 63 1009.0
20260904144530 53 262 0.0 0.0 0.00 0.00 0.00 65 1008.9
20260904143008 52 254 0.0 0.0 0.00 0.00 0.00 68 1008.4
20260904141511 51 321 0.0 2.0 0.00 0.00 0.00 69 1007.4
20260904140033 50 307 0.0 0.0 0.00 0.00 0.00 70 1007.8
20260904134528 49 246 0.0 0.0 0.00 0.00 0.00 72 1008.3
20260904133029 49 347 0.0 0.0 0.00 0.00 0.00 72 1008.2
20260904131511 49 340 0.0 0.0 0.00 0.00 0.00 72 1008.3
20260904130016 48 295 0.0 0.0 0.00 0.00 0.00 73 1008.1
20260904124524 48 254 0.0 0.0 0.00 0.00 0.00 73 1008.5
20260904123034 48 264 0.0 0.0 0.00 0.00 0.00 72 1008.4
20260904121531 48 278 0.0 0.0 0.00 0.00 0.00 73 1007.7
20260904120013 48 291 0.0 0.0 0.00 0.00 0.00 72 1007.9
20260904114519 49 291 0.0 0.0 0.00 0.00 0.00 72 1008.2
20260904113026 49 300 0.0 0.0 0.00 0.00 0.00 72 1008.0
20260904111530 49 276 0.0 0.0 0.00 0.00 0.00 71 1008.0
20260904110012 49 357 0.0 0.0 0.00 0.00 0.00 72 1008.4
20260904104519 48 272 0.0 0.0 0.00 0.00 0.00 72 1008.5
20260904103026 48 264 0.0 0.0 0.00 0.00 0.00 70 1008.7
20260904101530 49 295 0.0 0.0 0.00 0.00 0.00 69 1008.8
20260904100033 49 295 0.0 0.0 0.00 0.00 0.00 70 1009.0
20260904094518 48 266 0.0 0.0 0.00 0.00 0.00 69 1009.3
20260904093023 49 258 0.0 0.0 0.00 0.00 0.00 67 1009.3
20260904091529 51 260 0.0 0.0 0.00 0.00 0.00 62 1009.3
20260904090031 52 342 0.0 0.0 0.00 0.00 0.00 64 1009.0
20260904084536 54 342 0.0 0.0 0.00 0.00 0.00 60 1009.1
20260904083020 54 58 0.0 0.0 0.00 0.00 0.00 61 1009.3
20260904081528 54 58 0.0 0.0 0.00 0.00 0.00 61 1009.4
20260904080035 54 65 0.0 0.0 0.00 0.00 0.00 58 1009.5
20260904074530 55 68 0.0 0.0 0.00 0.00 0.00 56 1009.6
20260904073032 55 70 0.0 0.0 0.00 0.00 0.00 57 1009.5
20260904071508 54 12 0.0 0.0 0.00 0.00 0.00 58 1009.8
20260904070010 54 283 0.0 0.0 0.00 0.00 0.00 58 1010.3
20260904064512 56 322 0.0 0.0 0.00 0.00 0.00 55 1010.4
20260904063019 58 61 0.0 0.0 0.00 0.00 0.00 54 1010.1
20260904061510 58 51 0.0 0.0 0.00 0.00 0.00 54 1010.3
20260904060009 57 73 0.0 0.0 0.00 0.00 0.00 53 1010.6
20260904054512 57 65 0.0 0.0 0.00 0.00 0.00 54 1010.7
20260904053017 58 60 0.0 0.0 0.00 0.00 0.00 53 1010.9
20260904051514 59 58 0.0 0.0 0.00 0.00 0.00 50 1011.0
20260904050010 59 1 0.0 0.0 0.00 0.00 0.00 50 1011.0
20260904044511 59 1 0.0 0.0 0.00 0.00 0.00 50 1010.9
20260904043010 59 1 0.0 0.0 0.00 0.00 0.00 49 1011.0
20260904041514 58 1 0.0 0.0 0.00 0.00 0.00 51 1011.0
20260904040013 58 1 0.0 0.0 0.00 0.00 0.00 51 1010.7
20260904034513 58 46 0.0 0.0 0.00 0.00 0.00 51 1010.7
20260904033014 60 348 0.0 0.0 0.00 0.00 0.00 46 1010.6
20260904031515 60 322 0.0 0.0 0.00 0.00 0.00 47 1010.6
20260904030013 60 322 0.0 0.0 0.00 0.00 0.00 46 1010.6
20260904024514 61 359 0.0 0.0 0.00 0.00 0.00 44 1010.7
20260904023019 62 336 0.0 0.0 0.00 0.00 0.00 43 1010.5
20260904021516 64 345 0.0 0.0 0.00 0.00 0.00 40 1010.2
20260904020019 65 334 0.0 0.0 0.00 0.00 0.00 38 1009.9
20260904014529 68 340 0.0 0.0 0.00 0.00 0.00 35 1009.8
20260904013022 70 308 0.0 0.0 0.00 0.00 0.00 34 1009.7
20260904011538 72 300 0.0 0.0 0.00 0.00 0.00 32 1009.8
20260904010016 73 252 0.0 0.0 0.00 0.00 0.00 1009.8
20260904004524 74 306 0.0 0.0 0.00 0.00 0.00 30 1009.7
20260904003023 74 300 0.0 0.0 0.00 0.00 0.00 30 1009.9
20260904001526 74 324 0.0 0.0 0.00 0.00 0.00 30 1009.8
20260904000023 74 266 0.0 1.0 0.00 0.00 0.00 30 1009.6
20260903234523 74 295 0.0 4.0 0.00 0.00 0.00 30 1009.6
20260903233026 74 350 0.0 2.0 0.00 0.00 0.00 30 1009.5
20260903231527 74 238 0.0 6.0 0.00 0.00 0.00 30 1009.5
20260903230035 74 263 0.0 2.0 0.00 0.00 0.00 31 1009.5
20260903224534 75 271 0.0 6.0 0.00 0.00 0.00 30 1009.5
20260903223026 75 259 1.0 10.0 0.00 0.00 0.00 30 1009.4
20260903221505 75 278 1.0 8.0 0.00 0.00 0.00 30 1009.1
20260903220018 76 269 0.0 9.0 0.00 0.00 0.00 31 1009.1
20260903214522 76 272 0.0 10.0 0.00 0.00 0.00 31 1008.8
20260903213025 76 283 0.0 6.0 0.00 0.00 0.00 31 1008.7
20260903211520 76 269 0.0 8.0 0.00 0.00 0.00 30 1008.5
20260903210011 76 271 4.0 11.0 0.00 0.00 0.00 29 1008.5
20260903204517 77 226 0.0 4.0 0.00 0.00 0.00 29 1008.4
20260903203023 76 269 2.0 11.0 0.00 0.00 0.00 28 1008.5
20260903201524 76 236 0.0 2.0 0.00 0.00 0.00 29 1008.4
20260903200008 77 252 0.0 4.0 0.00 0.00 0.00 29 1008.3
20260903194512 75 260 0.0 13.0 0.00 0.00 0.00 29 1008.5
20260903193018 75 269 0.0 6.0 0.00 0.00 0.00 30 1008.5
20260903191526 76 188 0.0 0.0 0.00 0.00 0.00 29 1008.5
20260903190027 75 273 0.0 8.0 0.00 0.00 0.00 31 1008.5
20260903184512 72 225 0.0 2.0 0.00 0.00 0.00 34 1008.6
20260903183017 73 255 0.0 8.0 0.00 0.00 0.00 32 1008.5
20260903181524 72 208 0.0 0.0 0.00 0.00 0.00 1008.5
20260903180027 72 244 0.0 7.0 0.00 0.00 0.00 33 1008.7
20260903174530 72 229 0.0 9.0 0.00 0.00 0.00 33 1008.7
20260903173025 72 277 0.0 5.0 0.00 0.00 0.00 33 1008.8
20260903171524 72 246 0.0 0.0 0.00 0.00 0.00 34 1008.7